Regional Weather Roundup
Issued by NWS

Home | Current Version | Previous Version | Graphics & Text | Print | Product List | Glossary Off
Versions: 1 2 3 4 5 6 7 8 9 10 11 12 13 14 15 16 17 18 19 20 21 22 23 24 25 26 27 28 29 30 31 32 33 34 35 36 37 38 39 40 41 42 43 44 45 46 47 48 49 50

000
ASUS43 KMKX 181611
RWRWI

WISCONSIN REGIONAL WEATHER ROUNDUP
NATIONAL WEATHER SERVICE MILWAUKEE/SULLIVAN WI
1000 AM CST SUN FEB 18 2018

NOTE: "FAIR" INDICATES FEW OR NO CLOUDS BELOW 12,000 FEET WITH NO
SIGNIFICANT WEATHER AND/OR OBSTRUCTIONS TO VISIBILITY.

WIZ001-002-006>008-014>016-023>028-181700-
NORTHWEST WISCONSIN

CITY           SKY/WX    TMP DP  RH WIND       PRES   REMARKS
SUPERIOR ARPT  LGT SNOW  18  13  83 SE7       29.97F WCI   8
ASHLAND        CLOUDY    17  13  84 SE6       30.03R WCI   9
HAYWARD        CLOUDY    20   5  52 SE8       29.93F WCI  10
SIREN          FAIR      23   7  50 SE12G20   29.85F WCI  12
CUMBERLAND     CLOUDY    21   9  58 SE15G21   29.88F WCI   8
RICE LAKE      FAIR      22  10  59 SE13      29.93F WCI  10
CHETEK         PTSUNNY   22  10  60 SE8G16    29.93F WCI  13
LADYSMITH      CLOUDY    22   8  55 SE10G16   29.98F WCI  11
EAU CLAIRE     CLOUDY    26  14  60 SE16G24   29.94F WCI  14
MENOMONIE      PTSUNNY   25  14  62 SE18      29.92F WCI  12
NEW RICHMOND   CLOUDY    26  13  59 SE18G25   29.83F WCI  12
OSCEOLA        PTSUNNY   24  13  61 SE20G26   29.84F WCI  10
$$

WIZ003>005-009-010-017-018-181700-
NORTH CENTRAL WISCONSIN

CITY           SKY/WX    TMP DP  RH WIND       PRES   REMARKS
MANITOWISH WTR CLOUDY    15  12  87 SE9       29.99F WCI   3
ARBOR VITAE    CLOUDY    18  12  77 SE7       30.00S WCI   9
WOODRUFF       CLOUDY    18  12  77 SE7       30.00S WCI   9
RHINELANDER    CLOUDY    18  10  71 S10       30.03F WCI   6
EAGLE RIVER    LGT SNOW  15  10  79 SE7       30.01F WCI   6
LAND O LAKES   LGT SNOW  16  11  83 S9        30.04F WCI   4
PHILLIPS       CLOUDY    19   6  59 S8        30.00S WCI   8
TOMAHAWK       CLOUDY    18   9  69 CALM      30.04R
MEDFORD        CLOUDY    19   7  60 SE8       30.01F WCI   9
MERRILL        CLOUDY    19  10  67 SE7       30.06S WCI  10
$$

WIZ029-030-035-036-043>047-181700-
CENTRAL WISCONSIN

CITY           SKY/WX    TMP DP  RH WIND       PRES   REMARKS
WAUSAU         CLOUDY    20  10  65 SE9       30.06R WCI   9
MOSINEE        CLOUDY    19  12  73 SE9       30.08S WCI   9
MARSHFIELD     CLOUDY    23  15  71 S12       30.03F WCI  12
STEVENS POINT  FAIR      23  15  71 SE9       30.10S WCI  13
WAUPACA        FAIR      26  20  79 SE5       30.14F WCI  20
WAUTOMA        FAIR      27  22  81 SE8       30.13F WCI  19
WISC RAPIDS    FAIR      27  16  63 SE10G18   30.08F WCI  17
CAMP DOUGLAS   CLOUDY    30  21  69 SE14G20   30.06F WCI  20
$$

WIZ011>013-019>022-031-037>040-048>050-181700-
NORTHEAST WISCONSIN

CITY           SKY/WX    TMP DP  RH WIND       PRES   REMARKS
ANTIGO         CLOUDY    17  10  75 S10       30.07R WCI   5
SHAWANO        PTSUNNY   24  18  78 CALM      30.15S
OCONTO         CLOUDY    24  15  68 CALM      30.18R
STURGEON BAY   FAIR      25  16  68 S8        30.18R WCI  16
GREEN BAY      CLOUDY    23  18  81 SE6       30.16F WCI  16
MANITOWOC      CLOUDY    28  18  66 S7        30.19F WCI  21
APPLETON       CLOUDY    23  18  80 S7        30.13F WCI  15
CLINTONVILLE   PTSUNNY   23  17  77 S6        30.14S WCI  16
OSHKOSH        FAIR      26  22  84 S9        30.16F WCI  17
$$

WIZ032>034-041-042-053>061-181700-
SOUTHWEST WISCONSIN

CITY           SKY/WX    TMP DP  RH WIND       PRES   REMARKS
LA CROSSE      FAIR      32  23  69 S14G25    30.01F WCI  22
SPARTA         FAIR      32  23  69 S14G26    30.03F WCI  22
VIROQUA        FAIR      29  26  87 S21       30.03F WCI  16
BOSCOBEL       FAIR      28  23  81 S10G26    30.11F WCI  19
PRAIRIE DU CHI CLOUDY    27  23  87 SE12      30.08F WCI  16
PLATTEVILLE    CLOUDY    24  24 100 SE6       30.13F VSB 3/4 WCI  17
$$

WIZ056-057-062-063-064-067-068-181700-
SOUTH CENTRAL WISCONSIN

CITY           SKY/WX    TMP DP  RH WIND       PRES   REMARKS
REEDSBURG      FAIR      31  21  66 S15       30.10F WCI  20
BARABOO/DELLS  FAIR      31  20  65 S22       30.11F WCI  18
LONE ROCK      FAIR      30  26  85 S15G23    30.13F WCI  19
MINERAL POINT  FOG       25  25 100 SE6       30.10F VSB 1/2 WCI  18
MADISON        PTSUNNY   28  23  81 S13       30.17S WCI  17
MIDDLETON      FAIR      31  24  76 S13G22    30.16F WCI  21
WATERTOWN      FAIR      27  27 100 S9        30.19R WCI  18
MONROE         SNOW      19  19 100 S17       30.17F VSB<1/4 WCI   4
JANESVILLE     MOSUNNY   25  25 100 S9        30.21R WCI  15
$$

WIZ051-052-058>065-066-070>072-181700-
SOUTHEAST WISCONSIN

CITY           SKY/WX    TMP DP  RH WIND       PRES   REMARKS
MILWAUKEE      FAIR      30  26  85 S6        30.22R WCI  24
WAUKESHA       SUNNY     27  23  86 SE8       30.20S WCI  18
MILWAUKEE/TIMM SUNNY     28  23  80 SE7       30.21S WCI  21
RACINE         FAIR      32  26  78 S12       30.24R WCI  23
BURLINGTON     FAIR      30  23  73 S6        30.22R WCI  24
KENOSHA        FAIR      32  24  72 S9        30.23R WCI  24
FOND DU LAC    FAIR      28  20  71 S9        30.16F WCI  19
SHEBOYGAN      FAIR      26  22  84 S6        30.19S WCI  19
WEST BEND      FAIR      30  27  86 S8        30.18F WCI  23
JUNEAU         FAIR      24  23  96 S9        30.18S WCI  14
$$

LSZ147-162-181700-
LAKE SUPERIOR

STATION/POSITION TIME  TEMP    WIND        PRES    WAVE
                       AIR SEA DIR/SP/G            HT/PER
                 (UTC) (F)     (DEG/KT/KT) (MB)    (FT/S)
DEVILS ISLAND    1600   18     110/ 14/ 15 1017.6F
SAXON HARBOR     1540   18     140/  2/  6 1016.3F
$$

LMZ867-665-643>646-181700-
LAKE MICHIGAN

STATION/POSITION TIME  TEMP    WIND        PRES    WAVE
                       AIR SEA DIR/SP/G            HT/PER
                 (UTC) (F)     (DEG/KT/KT) (MB)    (FT/S)
NORTHPORT PIER   1540   24                 1021.7R
KEWAUNEE LAKESHO 1542   26     210/  4/  6 1021.5S
SHEBOYGAN LAKESH 1600   28     180/ 11/ 12 1023.4S
PORT WASHINGTON  1540   29     160/  6/  7 1024.0R
MILWAUKEE LAKESH 1550   29     180/  4/  5   N/A
KENOSHA   LAKESH 1600   29     170/ 14/ 17 1024.0
$$

TC  - TEMPERATURE IN CELSIUS
VSB - VISIBILITY IN STATUTE MILES
WCI - WIND CHILL INDEX
HX  - HEAT INDEX





USA.gov is the U.S. government's official web portal to all federal, state and local government web resources and services.